contact:dominique.lefevre@mio.osupytheas.fr, maurice.libes@osupytheas.fr, didier.mallarino@osupytheas.fr
Project:EMSO http://www.emso-fr.org/EMSO-France
Depth: 2436.0 m
Title:EMSO Ligure Ouest : Data MII capteur AQUADOPP
Date,Latitude,Longitude,X_East,Y_North,Z_Up,Amplitude_X,Amplitude_Y,Amplitude_Z,Batterie,SoundSpeed,Heading,Pitch,Roll,Pressure,TIS,Speed,Direction
, degrees North, degrees East, m.s-1, m.s-1,m.s-1, 1, 1, 1, Volt, m.s-1, degree, degree, degree, dbar, degree_C, m.s-1, degree
2023-11-26T00:04:03,42.805,6.029,-0.012,0.025,-0.044,108.0,108.0,104.0,13.3,1505.2,353.9,-0.7,1.8,2471.4,13.29,0.027,334.4
2023-11-26T00:07:03,42.805,6.029,-0.049,0.05,-0.027,107.0,106.0,104.0,13.3,1505.2,349.6,-0.8,1.8,2471.418,13.29,0.07,315.6
2023-11-26T00:10:03,42.805,6.029,-0.046,0.002,-0.027,107.0,107.0,105.0,13.4,1505.2,337.7,-0.8,1.9,2471.413,13.29,0.046,272.5
2023-11-26T00:13:03,42.805,6.029,-0.035,0.06,-0.014,107.0,108.0,105.0,13.4,1505.2,351.2,-0.8,1.8,2471.361,13.29,0.069,329.7
2023-11-26T00:16:03,42.805,6.029,-0.016,0.02,-0.03,108.0,107.0,104.0,13.4,1505.2,343.5,-0.7,1.8,2471.374,13.29,0.025,321.3
2023-11-26T00:19:03,42.805,6.029,-0.044,0.014,-0.039,107.0,107.0,104.0,13.4,1505.2,342.8,-0.7,1.8,2471.355,13.29,0.046,287.6
2023-11-26T00:22:03,42.805,6.029,-0.041,0.024,-0.036,107.0,107.0,105.0,13.3,1505.2,343.7,-0.8,1.8,2471.339,13.29,0.047,300.3
2023-11-26T00:25:03,42.805,6.029,-0.046,0.038,-0.045,107.0,108.0,105.0,13.3,1505.2,349.4,-0.8,1.9,2471.361,13.29,0.059,309.6
2023-11-26T00:28:03,42.805,6.029,-0.016,0.034,-0.003,108.0,108.0,104.0,13.3,1505.2,2.6,-0.8,1.8,2471.343,13.29,0.037,334.8
2023-11-26T00:31:03,42.805,6.029,-0.02,0.009,-0.016,107.0,105.0,105.0,13.3,1505.2,353.3,-0.8,1.8,2471.314,13.29,0.021,294.2
2023-11-26T00:34:03,42.805,6.029,-0.021,0.027,-0.018,108.0,106.0,104.0,13.4,1505.2,358.0,-0.7,1.8,2471.318,13.29,0.034,322.1
2023-11-26T00:37:03,42.805,6.029,-0.022,0.023,-0.034,108.0,106.0,103.0,13.4,1505.2,350.5,-0.8,1.8,2471.316,13.29,0.031,316.3
2023-11-26T00:40:03,42.805,6.029,-0.001,0.032,-0.003,107.0,108.0,104.0,13.3,1505.2,359.1,-0.7,1.8,2471.334,13.29,0.032,358.2
2023-11-26T00:43:03,42.805,6.029,-0.026,0.042,-0.014,108.0,107.0,105.0,13.4,1505.2,352.4,-0.8,1.8,2471.352,13.29,0.049,328.2
2023-11-26T00:46:03,42.805,6.029,-0.028,0.03,-0.035,108.0,107.0,103.0,13.4,1505.2,351.0,-0.8,1.8,2471.343,13.29,0.041,317.0
2023-11-26T00:49:03,42.805,6.029,-0.018,0.024,-0.021,108.0,107.0,104.0,13.3,1505.2,354.3,-0.8,1.8,2471.346,13.29,0.03,323.1
2023-11-26T00:52:03,42.805,6.029,-0.03,0.036,-0.019,108.0,107.0,103.0,13.4,1505.2,348.5,-0.8,1.8,2471.358,13.29,0.046,320.2
2023-11-26T00:55:03,42.805,6.029,-0.021,0.039,0.015,109.0,108.0,104.0,13.4,1505.2,341.2,-0.8,1.8,2471.367,13.29,0.044,331.7
2023-11-26T00:58:03,42.805,6.029,-0.04,0.038,-0.024,108.0,108.0,105.0,13.3,1505.2,335.7,-0.8,1.8,2471.324,13.29,0.055,313.5
2023-11-26T01:04:03,42.805,6.029,-0.035,0.045,0.009,109.0,108.0,106.0,13.3,1505.2,346.4,-0.8,1.8,2471.377,13.29,0.057,322.1
2023-11-26T01:07:03,42.805,6.029,-0.033,0.009,-0.051,109.0,108.0,105.0,13.4,1505.2,346.6,-0.8,1.8,2471.415,13.29,0.034,285.3
2023-11-26T01:10:03,42.805,6.029,-0.023,0.028,-0.029,108.0,109.0,107.0,13.3,1505.2,342.7,-0.7,1.8,2471.403,13.29,0.036,320.6
2023-11-26T01:13:03,42.805,6.029,-0.018,0.032,-0.013,110.0,107.0,106.0,13.3,1505.2,350.2,-0.8,1.8,2471.412,13.29,0.036,330.6
2023-11-26T01:16:03,42.805,6.029,-0.037,0.046,0.006,108.0,108.0,106.0,13.4,1505.2,343.3,-0.7,1.8,2471.386,13.29,0.059,321.2
2023-11-26T01:19:03,42.805,6.029,-0.024,0.02,-0.017,109.0,108.0,105.0,13.4,1505.2,0.8,-0.8,1.8,2471.37,13.29,0.031,309.8
2023-11-26T01:22:03,42.805,6.029,-0.016,0.015,-0.035,107.0,108.0,106.0,13.4,1505.2,356.3,-0.8,1.8,2471.395,13.29,0.021,313.1
2023-11-26T01:25:03,42.805,6.029,-0.039,0.009,-0.026,109.0,108.0,106.0,13.4,1505.2,335.2,-0.7,1.8,2471.411,13.29,0.04,283.0
2023-11-26T01:28:03,42.805,6.029,-0.04,0.026,-0.035,110.0,109.0,104.0,13.3,1505.2,342.8,-0.8,1.8,2471.391,13.29,0.047,303.0
2023-11-26T01:31:03,42.805,6.029,-0.029,0.019,-0.016,110.0,109.0,106.0,13.4,1505.2,351.6,-0.7,1.8,2471.336,13.29,0.034,303.2
2023-11-26T01:34:03,42.805,6.029,-0.026,0.022,-0.028,108.0,108.0,105.0,13.3,1505.2,353.7,-0.8,1.8,2471.422,13.29,0.034,310.2
2023-11-26T01:37:03,42.805,6.029,-0.041,0.009,-0.032,109.0,108.0,107.0,13.4,1505.2,340.5,-0.8,1.8,2471.367,13.29,0.041,282.4
2023-11-26T01:40:03,42.805,6.029,-0.019,0.029,-0.005,108.0,108.0,105.0,13.3,1505.2,343.1,-0.8,1.8,2471.376,13.29,0.034,326.8
2023-11-26T01:43:03,42.805,6.029,-0.027,0.022,-0.02,109.0,109.0,106.0,13.3,1505.2,338.6,-0.7,1.8,2471.384,13.29,0.034,309.2
2023-11-26T01:46:03,42.805,6.029,-0.021,0.027,-0.018,107.0,109.0,104.0,13.4,1505.2,351.2,-0.8,1.8,2471.357,13.29,0.034,322.1
2023-11-26T01:49:03,42.805,6.029,-0.02,0.029,-0.016,106.0,107.0,105.0,13.4,1505.2,359.1,-0.8,1.8,2471.398,13.29,0.035,325.4
2023-11-26T01:52:03,42.805,6.029,-0.011,0.002,-0.023,107.0,108.0,106.0,13.4,1505.2,340.4,-0.8,1.8,2471.405,13.29,0.011,280.3
2023-11-26T01:55:03,42.805,6.029,-0.04,0.025,-0.003,107.0,108.0,105.0,13.3,1505.2,0.9,-0.8,1.8,2471.431,13.29,0.047,302.0
2023-11-26T01:58:03,42.805,6.029,-0.023,0.019,-0.022,107.0,107.0,105.0,13.4,1505.2,0.0,-0.7,1.8,2471.409,13.29,0.029,309.6
2023-11-26T02:04:03,42.805,6.029,-0.014,0.015,-0.008,108.0,107.0,105.0,13.4,1505.2,353.9,-0.8,1.8,2471.461,13.29,0.02,317.0
2023-11-26T02:07:03,42.805,6.029,-0.006,0.002,-0.022,109.0,107.0,104.0,13.4,1505.2,1.7,-0.8,1.8,2471.449,13.29,0.006,288.4
2023-11-26T02:10:03,42.805,6.029,-0.01,0.025,0.007,108.0,107.0,105.0,13.4,1505.2,356.4,-0.8,1.8,2471.422,13.29,0.026,338.2
2023-11-26T02:13:03,42.805,6.029,-0.01,0.01,0.0,107.0,110.0,106.0,13.4,1505.2,0.0,-0.8,1.8,2471.455,13.29,0.014,315.0
2023-11-26T02:16:03,42.805,6.029,-0.026,0.022,-0.02,108.0,108.0,105.0,13.3,1505.2,352.2,-0.8,1.8,2471.434,13.29,0.034,310.2
2023-11-26T02:19:03,42.805,6.029,-0.019,0.024,-0.01,109.0,108.0,105.0,13.3,1505.2,357.0,-0.8,1.8,2471.429,13.29,0.03,321.6
2023-11-26T02:22:03,42.805,6.029,-0.009,-0.005,-0.034,108.0,108.0,106.0,13.3,1505.2,342.7,-0.8,1.8,2471.437,13.29,0.01,240.9
2023-11-26T02:25:03,42.805,6.029,-0.01,0.018,-0.005,109.0,107.0,105.0,13.3,1505.2,359.1,-0.8,1.8,2471.438,13.29,0.02,330.9
2023-11-26T02:28:03,42.805,6.029,-0.042,0.006,-0.028,109.0,107.0,103.0,13.3,1505.2,341.3,-0.8,1.8,2471.421,13.29,0.042,278.1
2023-11-26T02:31:03,42.805,6.029,-0.012,0.004,-0.001,108.0,110.0,104.0,13.4,1505.2,335.6,-0.8,1.8,2471.455,13.29,0.012,288.4
2023-11-26T02:34:03,42.805,6.029,-0.034,0.017,-0.017,109.0,109.0,106.0,13.4,1505.2,353.6,-0.7,1.8,2471.415,13.29,0.038,296.6
2023-11-26T02:37:03,42.805,6.029,-0.023,0.016,-0.025,108.0,108.0,105.0,13.4,1505.2,0.9,-0.7,1.8,2471.435,13.29,0.028,304.8
2023-11-26T02:40:03,42.805,6.029,-0.031,0.017,-0.014,108.0,106.0,106.0,13.4,1505.2,354.4,-0.8,1.8,2471.426,13.29,0.035,298.7
2023-11-26T02:43:03,42.805,6.029,-0.015,0.019,-0.031,110.0,107.0,104.0,13.4,1505.2,0.8,-0.8,1.8,2471.413,13.29,0.024,321.7
2023-11-26T02:46:03,42.805,6.029,-0.019,0.003,-0.028,108.0,107.0,104.0,13.4,1505.2,348.2,-0.8,1.8,2471.489,13.29,0.019,279.0
2023-11-26T02:49:03,42.805,6.029,-0.032,0.027,-0.001,109.0,107.0,106.0,13.4,1505.2,340.5,-0.7,1.8,2471.431,13.29,0.041,310.2
2023-11-26T02:52:03,42.805,6.029,-0.007,0.025,-0.016,109.0,108.0,104.0,13.4,1505.2,347.6,-0.7,1.8,2471.458,13.29,0.025,344.4
2023-11-26T02:55:03,42.805,6.029,-0.03,0.016,-0.051,110.0,107.0,105.0,13.3,1505.2,348.5,-0.7,1.8,2471.464,13.29,0.034,298.1
2023-11-26T02:58:03,42.805,6.029,0.005,0.023,-0.02,109.0,107.0,105.0,13.4,1505.2,344.1,-0.8,1.8,2471.465,13.29,0.023,12.3
2023-11-26T03:04:03,42.805,6.029,-0.014,0.034,0.004,109.0,109.0,105.0,13.4,1505.2,342.4,-0.8,1.8,2471.518,13.29,0.036,337.6
2023-11-26T03:07:03,42.805,6.029,-0.025,0.047,-0.01,108.0,106.0,104.0,13.4,1505.2,359.1,-0.7,1.8,2471.554,13.29,0.053,332.0
2023-11-26T03:10:03,42.805,6.029,-0.013,0.009,-0.02,108.0,107.0,105.0,13.4,1505.2,350.2,-0.8,1.8,2471.5,13.29,0.015,304.7
2023-11-26T03:13:03,42.805,6.029,-0.003,0.026,0.004,109.0,108.0,105.0,13.4,1505.2,0.0,-0.7,1.8,2471.499,13.29,0.026,353.4
2023-11-26T03:16:03,42.805,6.029,-0.006,0.04,-0.047,108.0,107.0,105.0,13.4,1505.2,343.0,-0.8,1.8,2471.559,13.29,0.04,351.5
2023-11-26T03:19:03,42.805,6.029,-0.02,0.025,0.0,107.0,108.0,105.0,13.4,1505.2,341.5,-0.8,1.8,2471.519,13.29,0.032,321.3
2023-11-26T03:22:03,42.805,6.029,-0.018,0.027,-0.005,109.0,107.0,104.0,13.4,1505.2,350.5,-0.7,1.8,2471.507,13.29,0.032,326.3
2023-11-26T03:25:03,42.805,6.029,-0.003,0.053,-0.02,109.0,108.0,104.0,13.3,1505.2,357.2,-0.8,1.8,2471.512,13.29,0.053,356.8
2023-11-26T03:28:03,42.805,6.029,-0.005,0.033,-0.012,107.0,107.0,105.0,13.3,1505.2,353.4,-0.7,1.8,2471.515,13.29,0.033,351.4
2023-11-26T03:31:03,42.805,6.029,-0.017,0.032,-0.014,108.0,108.0,105.0,13.4,1505.2,335.9,-0.8,1.8,2471.5,13.29,0.036,332.0
2023-11-26T03:34:03,42.805,6.029,-0.031,0.021,-0.014,107.0,107.0,105.0,13.4,1505.2,349.8,-0.8,1.8,2471.491,13.29,0.037,304.1
2023-11-26T03:37:03,42.805,6.029,-0.013,0.026,0.01,109.0,107.0,106.0,13.4,1505.2,0.0,-0.7,1.8,2471.524,13.29,0.029,333.4
2023-11-26T03:40:03,42.805,6.029,-0.035,0.011,-0.042,108.0,107.0,106.0,13.4,1505.2,338.3,-0.7,1.8,2471.542,13.29,0.036,287.4
2023-11-26T03:43:03,42.805,6.029,-0.019,0.023,-0.005,108.0,107.0,105.0,13.4,1505.2,348.2,-0.8,1.8,2471.515,13.29,0.029,320.4
2023-11-26T03:46:03,42.805,6.029,-0.023,0.019,-0.019,108.0,108.0,105.0,13.4,1505.2,346.8,-0.7,1.8,2471.516,13.29,0.029,309.6
2023-11-26T03:49:03,42.805,6.029,-0.015,0.027,-0.005,108.0,108.0,106.0,13.4,1505.2,350.3,-0.8,1.8,2471.54,13.29,0.03,330.9
2023-11-26T03:52:03,42.805,6.029,-0.019,0.019,-0.007,109.0,107.0,105.0,13.4,1505.2,359.0,-0.8,1.8,2471.535,13.29,0.026,315.0
2023-11-26T03:55:03,42.805,6.029,-0.03,0.02,-0.011,108.0,106.0,105.0,13.3,1505.2,352.5,-0.8,1.8,2471.525,13.29,0.036,303.7
2023-11-26T03:58:03,42.805,6.029,-0.016,-0.002,-0.015,108.0,106.0,105.0,13.4,1505.2,345.5,-0.7,1.8,2471.535,13.29,0.016,262.9
2023-11-26T04:04:03,42.805,6.029,-0.012,0.021,-0.028,109.0,107.0,105.0,13.4,1505.2,345.7,-0.7,1.8,2471.537,13.29,0.024,330.3
2023-11-26T04:07:03,42.805,6.029,-0.016,0.013,-0.009,109.0,108.0,106.0,13.3,1505.2,338.9,-0.8,1.8,2471.584,13.29,0.02,309.1
2023-11-26T04:10:03,42.805,6.029,-0.011,0.016,0.003,109.0,107.0,105.0,13.4,1505.2,345.7,-0.7,1.8,2471.588,13.29,0.019,325.5
2023-11-26T04:13:03,42.805,6.029,-0.017,0.016,-0.004,107.0,108.0,105.0,13.4,1505.2,335.6,-0.8,1.8,2471.554,13.29,0.023,313.3
2023-11-26T04:16:03,42.805,6.029,-0.017,0.012,-0.021,109.0,107.0,106.0,13.4,1505.2,353.7,-0.7,1.8,2471.608,13.29,0.02,305.2
2023-11-26T04:19:03,42.805,6.029,-0.012,0.012,0.009,107.0,107.0,105.0,13.4,1505.2,352.5,-0.8,1.8,2471.553,13.29,0.016,315.0
2023-11-26T04:22:03,42.805,6.029,-0.017,0.0,-0.031,106.0,106.0,105.0,13.3,1505.2,342.0,-0.8,1.8,2471.578,13.29,0.017,270.0
2023-11-26T04:25:03,42.805,6.029,-0.016,0.021,-0.035,108.0,108.0,104.0,13.4,1505.2,355.3,-0.8,1.8,2471.571,13.29,0.026,322.7
2023-11-26T04:28:03,42.805,6.029,-0.015,0.027,0.012,108.0,108.0,106.0,13.4,1505.2,341.3,-0.8,1.8,2471.556,13.29,0.03,330.9
2023-11-26T04:31:03,42.805,6.029,-0.025,-0.002,-0.005,108.0,107.0,104.0,13.4,1505.2,346.3,-0.8,1.8,2471.575,13.29,0.025,265.4
2023-11-26T04:34:03,42.805,6.029,-0.031,0.035,-0.05,108.0,107.0,105.0,13.3,1505.2,353.4,-0.8,1.8,2471.56,13.29,0.046,318.5
2023-11-26T04:37:03,42.805,6.029,-0.019,0.043,0.002,108.0,106.0,104.0,13.3,1505.2,354.5,-0.7,1.8,2471.606,13.29,0.047,336.2
2023-11-26T04:40:03,42.805,6.029,-0.026,0.016,0.009,107.0,107.0,104.0,13.3,1505.2,359.0,-0.8,1.8,2471.565,13.29,0.03,301.6
2023-11-26T04:43:03,42.805,6.029,-0.019,0.035,0.017,108.0,106.0,104.0,13.4,1505.2,337.3,-0.8,1.8,2471.565,13.29,0.039,331.5
2023-11-26T04:46:03,42.805,6.029,-0.042,-0.01,-0.012,109.0,107.0,104.0,13.4,1505.2,342.7,-0.7,1.8,2471.608,13.29,0.043,256.6
2023-11-26T04:49:03,42.805,6.029,-0.028,0.022,-0.007,107.0,107.0,104.0,13.4,1505.2,1.6,-0.8,1.8,2471.613,13.29,0.035,308.2
2023-11-26T04:52:03,42.805,6.029,-0.017,0.033,-0.04,107.0,107.0,103.0,13.3,1505.2,354.5,-0.8,1.8,2471.6,13.29,0.037,332.7
2023-11-26T04:55:03,42.805,6.029,-0.017,0.038,-0.013,107.0,107.0,105.0,13.4,1505.2,356.7,-0.8,1.8,2471.622,13.29,0.041,335.9
2023-11-26T04:58:03,42.805,6.029,-0.019,0.032,-0.007,108.0,108.0,104.0,13.4,1505.2,354.1,-0.8,1.8,2471.629,13.29,0.037,329.3
2023-11-26T05:04:03,42.805,6.029,-0.023,0.027,-0.006,107.0,107.0,104.0,13.4,1505.2,351.7,-0.8,1.8,2471.65,13.29,0.035,319.6
2023-11-26T05:07:03,42.805,6.029,-0.024,0.021,-0.03,107.0,108.0,104.0,13.4,1505.2,340.2,-0.8,1.8,2471.642,13.29,0.031,311.2
2023-11-26T05:10:03,42.805,6.029,-0.021,0.023,-0.003,107.0,108.0,104.0,13.4,1505.2,344.6,-0.7,1.8,2471.643,13.29,0.031,317.6
2023-11-26T05:13:03,42.805,6.029,-0.036,0.019,-0.007,107.0,107.0,105.0,13.4,1505.2,346.1,-0.8,1.8,2471.651,13.29,0.04,297.8
2023-11-26T05:16:03,42.805,6.029,-0.028,-0.003,-0.022,106.0,107.0,105.0,13.4,1505.2,345.5,-0.8,1.8,2471.61,13.29,0.028,263.9
2023-11-26T05:19:03,42.805,6.029,-0.017,0.0,-0.005,106.0,107.0,103.0,13.4,1505.2,355.6,-0.8,1.8,2471.598,13.29,0.017,270.0
2023-11-26T05:22:03,42.805,6.029,-0.021,0.024,-0.033,108.0,108.0,104.0,13.4,1505.2,356.5,-0.8,1.8,2471.67,13.29,0.031,318.8
2023-11-26T05:25:03,42.805,6.029,-0.022,0.017,-0.007,108.0,105.0,104.0,13.3,1505.2,344.8,-0.8,1.8,2471.6,13.29,0.027,307.7
2023-11-26T05:28:03,42.805,6.029,-0.028,0.0,-0.014,108.0,106.0,103.0,13.4,1505.2,344.8,-0.8,1.8,2471.59,13.29,0.028,270.0
2023-11-26T05:31:03,42.805,6.029,-0.021,-0.012,-0.036,106.0,107.0,105.0,13.3,1505.2,345.4,-0.7,1.8,2471.605,13.29,0.024,240.3
2023-11-26T05:34:03,42.805,6.029,-0.028,0.034,-0.034,108.0,107.0,105.0,13.4,1505.2,347.1,-0.8,1.8,2471.635,13.29,0.044,320.5
2023-11-26T05:37:03,42.805,6.029,-0.016,0.024,-0.032,108.0,107.0,105.0,13.4,1505.2,348.6,-0.8,1.8,2471.639,13.29,0.028,326.3
2023-11-26T05:40:03,42.805,6.029,-0.009,0.038,-0.03,108.0,107.0,106.0,13.4,1505.2,353.7,-0.7,1.8,2471.608,13.29,0.039,346.7
2023-11-26T05:43:03,42.805,6.029,-0.045,0.014,-0.013,107.0,107.0,105.0,13.4,1505.2,339.5,-0.8,1.8,2471.668,13.29,0.047,287.3
2023-11-26T05:46:03,42.805,6.029,-0.027,-0.003,-0.029,108.0,107.0,105.0,13.4,1505.2,352.4,-0.8,1.8,2471.638,13.29,0.027,263.7
2023-11-26T05:49:03,42.805,6.029,-0.022,0.009,-0.003,107.0,107.0,104.0,13.3,1505.2,342.3,-0.8,1.8,2471.643,13.29,0.023,292.2
2023-11-26T05:52:03,42.805,6.029,-0.002,-0.007,0.005,108.0,107.0,106.0,13.4,1505.2,345.9,-0.7,1.8,2471.656,13.29,0.007,195.9
2023-11-26T05:55:03,42.805,6.029,-0.043,0.017,-0.024,108.0,108.0,105.0,13.4,1505.2,352.5,-0.8,1.8,2471.654,13.29,0.046,291.6
2023-11-26T05:58:03,42.805,6.029,-0.027,0.019,-0.009,108.0,106.0,105.0,13.3,1505.2,351.8,-0.8,1.8,2471.655,13.29,0.033,305.1
2023-11-26T06:04:03,42.805,6.029,-0.039,0.027,-0.013,108.0,107.0,105.0,13.3,1505.2,348.0,-0.8,1.8,2471.676,13.29,0.047,304.7
2023-11-26T06:07:03,42.805,6.029,-0.021,0.021,-0.006,108.0,107.0,108.0,13.4,1505.2,1.7,-0.8,1.8,2471.69,13.29,0.029,315.0
2023-11-26T06:10:03,42.805,6.029,-0.017,0.001,-0.01,108.0,107.0,105.0,13.4,1505.2,341.2,-0.8,1.8,2471.682,13.29,0.017,273.4
2023-11-26T06:13:03,42.805,6.029,-0.022,0.024,-0.038,109.0,108.0,105.0,13.4,1505.2,353.1,-0.8,1.8,2471.707,13.29,0.032,317.5
2023-11-26T06:16:03,42.805,6.029,-0.055,0.022,-0.031,107.0,107.0,104.0,13.3,1505.2,343.7,-0.7,1.8,2471.677,13.29,0.059,291.8
2023-11-26T06:19:03,42.805,6.029,-0.059,0.017,-0.043,108.0,106.0,104.0,13.4,1505.2,342.0,-0.8,1.8,2471.681,13.29,0.061,286.1
2023-11-26T06:22:03,42.805,6.029,-0.009,0.008,-0.013,108.0,109.0,104.0,13.3,1505.2,359.0,-0.8,1.8,2471.667,13.29,0.012,311.6
2023-11-26T06:25:03,42.805,6.029,-0.028,0.008,-0.027,108.0,108.0,104.0,13.4,1505.2,341.3,-0.8,1.8,2471.674,13.29,0.029,285.9
2023-11-26T06:28:03,42.805,6.029,-0.03,0.029,-0.015,108.0,108.0,105.0,13.4,1505.2,353.4,-0.8,1.8,2471.62,13.29,0.041,314.0
2023-11-26T06:31:03,42.805,6.029,-0.029,0.03,-0.018,108.0,107.0,104.0,13.3,1505.2,353.1,-0.8,1.8,2471.649,13.29,0.041,316.0
2023-11-26T06:34:03,42.805,6.029,-0.029,0.022,-0.005,108.0,108.0,105.0,13.4,1505.2,344.9,-0.8,1.8,2471.638,13.29,0.036,307.2
2023-11-26T06:37:03,42.805,6.029,-0.022,0.02,-0.003,107.0,107.0,105.0,13.4,1505.2,347.4,-0.7,1.8,2471.666,13.29,0.029,312.3
2023-11-26T06:40:03,42.805,6.029,-0.001,0.025,-0.015,108.0,106.0,104.0,13.4,1505.2,343.5,-0.8,1.8,2471.658,13.29,0.025,357.7
2023-11-26T06:43:03,42.805,6.029,-0.045,0.031,-0.031,108.0,107.0,105.0,13.4,1505.2,344.7,-0.8,1.9,2471.683,13.29,0.054,304.6
2023-11-26T06:46:03,42.805,6.029,-0.038,0.021,-0.012,110.0,109.0,104.0,13.3,1505.2,338.3,-0.8,1.8,2471.662,13.29,0.043,298.9
2023-11-26T06:49:03,42.805,6.029,-0.02,0.032,0.0,107.0,108.0,106.0,13.3,1505.2,0.0,-0.8,1.8,2471.679,13.29,0.037,328.0
2023-11-26T06:52:03,42.805,6.029,-0.037,0.034,-0.003,108.0,108.0,105.0,13.3,1505.2,341.5,-0.8,1.8,2471.625,13.29,0.05,312.6
2023-11-26T06:55:03,42.805,6.029,-0.02,0.028,0.004,108.0,107.0,105.0,13.3,1505.2,353.5,-0.7,1.8,2471.661,13.29,0.034,324.5
2023-11-26T06:58:03,42.805,6.029,-0.022,0.028,-0.009,109.0,108.0,105.0,13.3,1505.2,0.9,-0.7,1.8,2471.658,13.29,0.035,321.8
2023-11-26T07:04:03,42.805,6.029,-0.065,0.012,-0.046,108.0,107.0,105.0,13.3,1505.2,336.3,-0.8,1.8,2471.704,13.29,0.066,280.5
2023-11-26T07:07:03,42.805,6.029,-0.043,0.021,-0.037,108.0,107.0,105.0,13.4,1505.2,346.1,-0.8,1.8,2471.674,13.29,0.047,296.0
2023-11-26T07:10:03,42.805,6.029,-0.021,0.03,-0.038,108.0,107.0,103.0,13.3,1505.2,1.6,-0.8,1.8,2471.709,13.29,0.036,325.0
2023-11-26T07:13:03,42.805,6.029,-0.037,0.018,0.0,108.0,109.0,104.0,13.4,1505.2,340.7,-0.8,1.8,2471.662,13.29,0.041,295.9
2023-11-26T07:16:03,42.805,6.029,-0.057,0.038,-0.013,109.0,108.0,106.0,13.3,1505.2,350.8,-0.8,1.8,2471.656,13.29,0.068,303.7
2023-11-26T07:19:03,42.805,6.029,-0.026,0.025,-0.027,108.0,108.0,105.0,13.4,1505.2,354.3,-0.8,1.8,2471.676,13.29,0.036,313.9
2023-11-26T07:22:03,42.805,6.029,-0.052,0.024,-0.038,108.0,109.0,105.0,13.4,1505.2,341.2,-0.8,1.8,2471.647,13.29,0.057,294.8
2023-11-26T07:25:03,42.805,6.029,-0.013,0.037,-0.019,109.0,107.0,105.0,13.3,1505.2,0.0,-0.7,1.8,2471.619,13.29,0.039,340.6
2023-11-26T07:28:03,42.805,6.029,-0.026,0.019,0.001,109.0,109.0,105.0,13.4,1505.2,337.4,-0.8,1.8,2471.655,13.29,0.032,306.2
2023-11-26T07:31:03,42.805,6.029,-0.032,0.036,-0.014,108.0,107.0,105.0,13.4,1505.2,344.7,-0.8,1.8,2471.654,13.29,0.048,318.4
2023-11-26T07:34:03,42.805,6.029,-0.029,0.038,-0.003,107.0,107.0,105.0,13.3,1505.2,1.7,-0.8,1.8,2471.636,13.29,0.047,322.7
2023-11-26T07:37:03,42.805,6.029,-0.042,0.023,-0.024,107.0,107.0,106.0,13.3,1505.2,339.8,-0.8,1.9,2471.632,13.29,0.047,298.7
2023-11-26T07:40:03,42.805,6.029,-0.045,0.031,-0.033,107.0,108.0,105.0,13.4,1505.2,344.9,-0.8,1.8,2471.68,13.29,0.054,304.6
2023-11-26T07:43:03,42.805,6.029,-0.036,0.036,-0.045,108.0,108.0,104.0,13.4,1505.2,351.1,-0.7,1.8,2471.658,13.29,0.05,315.0
2023-11-26T07:46:03,42.805,6.029,-0.038,0.034,-0.029,109.0,107.0,104.0,13.4,1505.2,0.9,-0.8,1.8,2471.656,13.29,0.05,311.8
2023-11-26T07:49:03,42.805,6.029,-0.037,0.028,-0.006,108.0,107.0,105.0,13.3,1505.2,338.0,-0.7,1.8,2471.675,13.29,0.046,307.1
2023-11-26T07:52:03,42.805,6.029,-0.021,0.034,-0.029,108.0,107.0,104.0,13.3,1505.2,347.0,-0.8,1.8,2471.645,13.29,0.039,328.3
2023-11-26T07:55:03,42.805,6.029,-0.03,0.035,-0.011,107.0,109.0,105.0,13.3,1505.2,353.6,-0.8,1.8,2471.688,13.29,0.046,319.4
2023-11-26T07:58:03,42.805,6.029,-0.034,0.032,-0.004,108.0,107.0,106.0,13.4,1505.2,1.6,-0.8,1.8,2471.635,13.29,0.046,313.3
2023-11-26T08:04:03,42.805,6.029,-0.043,0.028,-0.008,108.0,107.0,105.0,13.3,1505.2,348.5,-0.8,1.8,2471.676,13.29,0.051,303.1
2023-11-26T08:07:03,42.805,6.029,-0.031,0.05,-0.024,107.0,107.0,104.0,13.4,1505.2,358.2,-0.8,1.8,2471.68,13.29,0.058,328.2
2023-11-26T08:10:03,42.805,6.029,-0.023,0.019,-0.024,107.0,107.0,105.0,13.3,1505.2,354.8,-0.8,1.8,2471.682,13.29,0.029,309.6
2023-11-26T08:13:03,42.805,6.029,-0.015,0.014,-0.023,107.0,108.0,104.0,13.4,1505.2,351.1,-0.8,1.8,2471.695,13.29,0.02,313.0
2023-11-26T08:16:03,42.805,6.029,-0.026,0.009,-0.016,107.0,108.0,106.0,13.4,1505.2,335.5,-0.8,1.8,2471.655,13.29,0.027,289.1
2023-11-26T08:19:03,42.805,6.029,-0.025,0.024,-0.007,109.0,106.0,106.0,13.3,1505.2,352.5,-0.8,1.8,2471.661,13.29,0.034,313.8
2023-11-26T08:22:03,42.805,6.029,-0.048,0.024,-0.046,108.0,107.0,105.0,13.4,1505.2,340.4,-0.8,1.8,2471.643,13.29,0.053,296.6
2023-11-26T08:25:03,42.805,6.029,-0.042,0.03,-0.005,108.0,107.0,105.0,13.4,1505.2,339.0,-0.8,1.8,2471.651,13.29,0.051,305.5
2023-11-26T08:28:03,42.805,6.029,-0.037,0.015,-0.051,108.0,106.0,105.0,13.3,1505.2,343.9,-0.8,1.8,2471.612,13.29,0.039,292.1
2023-11-26T08:31:03,42.805,6.029,-0.018,0.017,-0.009,107.0,107.0,105.0,13.3,1505.2,335.2,-0.8,1.8,2471.663,13.29,0.024,313.4
2023-11-26T08:34:03,42.805,6.029,-0.025,0.035,-0.003,109.0,107.0,106.0,13.3,1505.2,344.5,-0.7,1.8,2471.645,13.29,0.043,324.5
2023-11-26T08:37:03,42.805,6.029,-0.026,0.03,-0.03,108.0,107.0,105.0,13.4,1505.2,357.4,-0.7,1.8,2471.656,13.29,0.039,319.1
2023-11-26T08:40:03,42.805,6.029,-0.039,0.02,-0.046,108.0,107.0,105.0,13.3,1505.2,343.0,-0.8,1.8,2471.634,13.29,0.043,297.1
2023-11-26T08:43:03,42.805,6.029,-0.021,0.003,-0.019,107.0,108.0,104.0,13.4,1505.2,354.2,-0.8,1.8,2471.647,13.29,0.021,278.1
2023-11-26T08:46:03,42.805,6.029,-0.048,0.015,-0.013,108.0,106.0,105.0,13.3,1505.2,339.3,-0.8,1.8,2471.64,13.29,0.05,287.4
2023-11-26T08:49:03,42.805,6.029,-0.026,0.039,-0.013,107.0,107.0,104.0,13.4,1505.2,1.7,-0.8,1.8,2471.637,13.29,0.046,326.3
2023-11-26T08:52:03,42.805,6.029,-0.025,0.021,-0.011,108.0,106.0,105.0,13.4,1505.2,353.6,-0.8,1.8,2471.594,13.29,0.032,310.0
2023-11-26T08:55:03,42.805,6.029,-0.024,0.043,0.006,108.0,107.0,105.0,13.4,1505.2,355.7,-0.8,1.9,2471.642,13.29,0.049,330.8
2023-11-26T08:58:03,42.805,6.029,-0.015,0.025,-0.039,107.0,108.0,104.0,13.4,1505.2,354.1,-0.7,1.8,2471.653,13.29,0.029,329.0
2023-11-26T09:04:03,42.805,6.029,-0.036,0.022,-0.05,109.0,108.0,105.0,13.4,1505.2,344.2,-0.7,1.8,2471.659,13.29,0.042,301.4
2023-11-26T09:07:03,42.805,6.029,-0.028,0.007,-0.004,108.0,108.0,105.0,13.3,1505.2,333.8,-0.7,1.8,2471.678,13.29,0.028,284.0
2023-11-26T09:10:03,42.805,6.029,-0.018,0.029,-0.013,110.0,107.0,105.0,13.3,1505.2,342.8,-0.8,1.9,2471.644,13.29,0.034,328.2
2023-11-26T09:13:03,42.805,6.029,-0.035,0.023,-0.012,108.0,108.0,105.0,13.4,1505.2,343.5,-0.8,1.8,2471.628,13.29,0.041,303.3
2023-11-26T09:16:03,42.805,6.029,-0.036,0.012,-0.025,108.0,107.0,104.0,13.4,1505.2,354.8,-0.8,1.8,2471.649,13.29,0.037,288.4
2023-11-26T09:19:03,42.805,6.029,-0.008,0.026,-0.034,109.0,108.0,105.0,13.3,1505.2,1.8,-0.8,1.8,2471.625,13.29,0.027,342.9
2023-11-26T09:22:03,42.805,6.029,-0.043,0.022,-0.018,109.0,108.0,106.0,13.4,1505.2,344.3,-0.8,1.8,2471.655,13.29,0.048,297.1
2023-11-26T09:25:03,42.805,6.029,-0.073,0.02,-0.021,109.0,109.0,104.0,13.3,1505.2,342.8,-0.7,1.8,2471.631,13.29,0.075,285.3
2023-11-26T09:28:03,42.805,6.029,-0.038,0.017,-0.014,108.0,108.0,105.0,13.4,1505.2,334.1,-0.8,1.8,2471.62,13.29,0.041,294.1
2023-11-26T09:31:03,42.805,6.029,-0.006,0.024,0.011,108.0,107.0,105.0,13.4,1505.2,2.6,-0.7,1.8,2471.621,13.29,0.024,346.0
2023-11-26T09:34:03,42.805,6.029,-0.024,0.035,-0.025,109.0,108.0,104.0,13.4,1505.2,350.3,-0.8,1.8,2471.601,13.29,0.042,325.6
2023-11-26T09:37:03,42.805,6.029,-0.03,0.034,-0.025,107.0,107.0,104.0,13.4,1505.2,1.7,-0.8,1.8,2471.555,13.29,0.045,318.6
2023-11-26T09:40:03,42.805,6.029,-0.042,0.03,-0.023,108.0,108.0,104.0,13.4,1505.2,346.6,-0.8,1.8,2471.581,13.29,0.051,305.5
2023-11-26T09:43:03,42.805,6.029,-0.036,0.037,-0.029,108.0,107.0,104.0,13.3,1505.2,348.5,-0.8,1.8,2471.585,13.29,0.051,315.8
2023-11-26T09:46:03,42.805,6.029,-0.015,0.026,-0.02,107.0,107.0,104.0,13.4,1505.2,338.0,-0.8,1.8,2471.59,13.29,0.03,330.0
2023-11-26T09:49:03,42.805,6.029,-0.012,0.032,0.014,108.0,106.0,104.0,13.4,1505.2,0.9,-0.8,1.8,2471.59,13.29,0.034,339.4
2023-11-26T09:52:03,42.805,6.029,-0.03,0.009,-0.019,109.0,107.0,105.0,13.4,1505.2,349.6,-0.7,1.8,2471.585,13.29,0.031,286.7
2023-11-26T09:55:03,42.805,6.029,-0.052,0.0,-0.008,108.0,107.0,103.0,13.3,1505.2,346.1,-0.8,1.8,2471.59,13.29,0.052,270.0